Regional Weather Roundup
Issued by NWS

Home | Current Version | Previous Version | Graphics & Text | Print | Product List | Glossary On
Versions: 1 2 3 4 5 6 7 8 9 10 11 12 13 14 15 16 17 18 19 20 21 22 23 24 25 26 27 28 29 30 31 32 33 34 35 36 37 38 39 40 41 42 43 44 45 46 47 48 49 50
000
ASUS45 KTFX 031504
RWRMT
MONTANA HOURLY WEATHER ROUNDUP
NATIONAL WEATHER SERVICE GREAT FALLS MT
804 AM MST TUE MAR 3 2015

NOTE: "FAIR" INDICATES FEW OR NO CLOUDS BELOW 12000 FEET WITH NO
SIGNIFICANT WEATHER AND/OR OBSTRUCTIONS TO VISIBILITY.

* THESE STATIONS ARE NOT UNDER NWS QUALITY CONTROL. THEY DO NOT
   REPORT WEATHER SUCH AS PRECIPITATION OR FOG.

MTZ001>007-043-031600-
WEST OF THE DIVIDE
CITY           SKY/WX    TMP DP  RH WIND       PRES   REMARKS
KALISPELL      SUNNY     10   0  64 N5        30.16S WCI   1
MISSOULA       PTCLDY    14   0  53 SE13      30.17R
BUTTE          PTSUNNY    3  -6  66 W7        29.99R WCI  -9
MULLAN PASS    CLOUDY     7   3  83 SE3       29.92S
* ANACONDA     SUNNY      3  -8  60 N/A        N/A
* ESSEX        N/A        1  -7  69 S9         N/A   WCI -14
* LINCOLN      N/A        1  -9  62 E6         N/A   WCI -11
* LOOKOUT PASS N/A       11   8  88 N/A        N/A
* POLSON       N/A       13   0  56 N1         N/A
* RONAN APT    SUNNY     18  10  71 N/A        N/A
* SEELEY LAKE  N/A      N/A N/A N/A N/A        N/A
* THOMP F APT  SUNNY      8  -5  55 NW8G30     N/A   WCI  -4
$$

MTZ008-052>055-031600-
SOUTHWEST MONTANA
CITY           SKY/WX    TMP DP  RH WIND       PRES   REMARKS
BOZEMAN        PTCLDY     3  -2  79 S10       30.06R WCI -12
DILLON         PTSUNNY    5  -2  72 E12       29.97R WCI -11
* W YELLOWSTON CLOUDY     5  -6  60 N6G16      N/A   WCI  -6
* THREE FORKS  PTCLDY     9  -4  55 N5         N/A
* BOULDER HILL N/A       -1  -6  79 N13        N/A   WCI -19
* MONIDA PASS  N/A        2  -4  76 NW12       N/A   WCI -15
* RAYNOLDS PAS N/A       -1  -2  95 N20G27     N/A   WCI -23
* WHITEHALL    N/A        8  -4  58 NE10G16    N/A   WCI  -6
* WISE RIVER   N/A        2  -9  59 SW2G17     N/A
$$

MTZ009>010-012-014-046-048-049-054-031600-
EAST SLOPES AND CENTRAL MONTANA
CITY           SKY/WX    TMP DP  RH WIND       PRES   REMARKS
CUT BANK       PTCLDY    -2  -6  83 W7        30.15F WCI -15
GREAT FALLS    SUNNY      1  -2  87 SW7       30.18F WCI -12
HELENA         SUNNY      9  -2  61 W7        30.17R WCI  -2
* DEARBORN     N/A       -1  -5  83 S3         N/A
* EAST GLACIER N/A       -8 -12  82 NW5        N/A   WCI -20
* MONARCH      N/A      -11 -16  78 E1         N/A
* PENDROY      N/A       -4  -6  91 W4         N/A
* ROGERS PASS  N/A       -6 -11  78 NW1        N/A
* SWEET GRASS  N/A       -2  -9  72 NW11       N/A   WCI -19
$$

MTZ011-013-016-021-035-040-045-047-050-051-031600-
NORTH CENTRAL MONTANA
CITY           SKY/WX    TMP DP  RH WIND       PRES   REMARKS
HAVRE          SUNNY      3  -2  79 W9        30.24F WCI -11
LEWISTOWN      SUNNY      1  -6  72 W9        30.12R WCI -14
* N BAR RANCH  SUNNY      1  -9  62 W20G26    30.05S WCI -21
* CHESTER      N/A        0  -7  72 W4         N/A
* DENTON       N/A        3  -4  72 W9         N/A   WCI -11
* GEYSER       N/A        2  -6  69 W13        N/A   WCI -16
* JUDITH GAP   N/A       -2  -5  87 VRB13      N/A   WCI -21
* LOMA         N/A        4  -3  72 SW4        N/A
$$

MTZ017>020-022>027-061-062-031600-
NORTHEAST MONTANA
CITY           SKY/WX    TMP DP  RH WIND       PRES   REMARKS
GLASGOW        SUNNY      7  -6  55 NW21G30   30.16R WCI -13
GLENDIVE       PTSUNNY    7  -6  55 NW23G28   30.12R WCI -14
JORDAN         PTCLDY     7   0  73 NW20      30.16S WCI -13
SIDNEY         PTCLDY     7  -6  55 W21G29    30.15R WCI -13
WOLF POINT     SUNNY      9  -2  61 W15G21    30.18S WCI  -8
* BEAVER HILL  N/A        4  -4  69 W28G34     N/A   WCI -20
* CIRCLE       N/A        6   0  76 NW8G16     N/A   WCI  -7
* LINDSAY DVD  N/A        3  -4  72 NW22G30    N/A   WCI -19
* NAVAJO       N/A       -2  -9  72 NW17G24    N/A   WCI -23
* SACO         N/A        5  -4  66 W15        N/A   WCI -13
$$

MTZ028>042-056>058-031600-
SOUTHCENTRAL AND SOUTHEAST MONTANA
CITY           SKY/WX    TMP DP  RH WIND       PRES   REMARKS
BAKER          PTCLDY     7  -6  55 NW25G32   30.06R WCI -15
BILLINGS       LGT SNOW   9   1  70 E5        30.13S
LIVINGSTON     CLOUDY     7  -2  66 NW12      30.05S WCI  -9
MILES CITY     PTSUNNY    9  -2  61 NW18      30.16R WCI  -9
* LAUREL APT   CLOUDY    10   1  67 N/A        N/A
* ROUNDUP APT  PTCLDY     9  -9  43 NW14G21    N/A   WCI  -7
* ALZADA       N/A        8   2  76 W11        N/A   WCI  -7
* HYSHAM       N/A        7  -1  69 NW5G11     N/A   WCI  -2
* REED POINT   N/A       10  -2  58 W6         N/A
* ROSCOE HILL  N/A        3  -2  79 VRB4       N/A
$$

REGIONAL REPORTS...DAKOTAS
CITY           SKY/WX    TMP DP  RH WIND       PRES   REMARKS
WILLISTON      PTCLDY     3  -6  66 NW17      30.11R WCI -17
DICKINSON      PTCLDY     7  -2  66 NW21G30   29.98S WCI -13
BEACH          PTSUNNY    5   0  80 NW29G36   30.06R WCI -19
CROSBY         PTSUNNY    0  -8  68 NW23G30   30.07R WCI -23
WATFORD CITY   LGT SNOW   5   0  80 NW14G21   30.06R VSB 3    WCI -12
BISMARCK       PTSUNNY    7  -4  60 NW24G38   30.03R WCI -14
GRAND FORKS    LGT SNOW  10   3  73 NW25G35   29.85R WCI -11
FARGO          LGT SNOW  14   7  73 NW33G39   29.85R WCI  -8
BUFFALO SD     PTSUNNY    9  -2  61 NW33G39   29.93R WCI -14
RAPID CITY     CLOUDY    14   7  73 N32G43    29.96S WCI  -7
$$

REGIONAL REPORTS...WYOMING/IDAHO/WASHINGTON
CITY           SKY/WX    TMP DP  RH WIND       PRES   REMARKS
GILLETTE       LGT SNOW   9   3  76 N21       29.98S VSB 1 1/4 WCI -11
SHERIDAN       LGT SNOW  10   7  88 NW14      30.07R VSB 1/2  WCI  -6
CODY           CLOUDY     7   3  83 N10       29.99R VSB 1    WCI  -7
YELLOWSTONE LA PTSUNNY    3  -6  66 VRB6      29.76R WCI  -8
SALMON         CLOUDY    19   1  45 N10       30.00R WCI   8
MULLAN PASS    CLOUDY     7   3  83 SE3       29.92S
SAND POINT     SUNNY     21   9  60 N8        30.18F WCI  11
SPOKANE        SUNNY     19  12  74 NW3       30.15S
$$

REGIONAL REPORTS...SASKATCHEWAN
CITY           SKY/WX    TMP DP  RH WIND       PRES   REMARKS
SWIFT CURRENT  PTSUNNY   -4  -9  79 NW18      30.08S WCI -26

$$



USA.gov is the U.S. government's official web portal to all federal, state and local government web resources and services.